Погода в Климовске

Россия / Московская область     55°22′30″N   37°32′20″E
темп.,
°C
ветер,
м/с
пор.,
м/с
влажн.,
%
обл.,
%
осадки,
мм/ч
давл.,
гПа
погр.,
м
11 мая, вт
вт1100:00+6св37735 0.0 1027140
03:00+5ссв38790 0.0 1028150
06:00+6св411790 0.0 1027299
09:00+12св69600 0.0 1027570
12:00+16св67500 0.0 1026800
15:00+19всв57521 0.0 1025998
18:00+18всв47654 0.0 1025637
21:00+14св498370 0.0 1026182
12 мая, ср
ср1200:00+12юв369691 0.1 1027136
03:00+10ю23937 0.1 102762
06:00+10ююз118521 0.0 102861
09:00+12с117094 0.0 1027265
12:00+17св3564100 0.1 1024869
15:00+16в498196 2.1 1021474
18:00+14вюв71388100 0.8 1019845
21:00+13юв6109453 3.8 1020662
13 мая, чт
чт1300:00+8юв359722 0.1 1021150
03:00+6вюв359655 0.1 1021102
06:00+7в38968 0.0 1021216
09:00+13в45765 0.0 1019442
12:00+15вюв5769100 0.1 10181004
15:00+14вюв358044 1.5 1017717
18:00+17юв367326 0.1 1015525
21:00+13юв379367 0.6 1016161
14 мая, пт
пт1400:00+11ююв379563 0.0 1017149
03:00+10ююв2495100 0.0 101774
06:00+11юв2393100 0.0 1018100
09:00+13вюв369087 0.0 1017294
12:00+17вюв61081100 1.1 1016540
15:00+21юв71072100 2.6 10151299
18:00+19юв71377100 2.3 1012589
21:00+16ююв41293100 10.3 1011276
15 мая, сб
сб1500:00+15ююв3129597 2.7 1011291
03:00+14вюв379663 5.4 1011170
06:00+14юв269549 0.8 1010155
09:00+18ю5879100 0.8 1010501
12:00+20ю4769100 0.0 1009813
15:00+22ю586789 0.4 10071292
18:00+19ю6108221 4.0 1007704
21:00+15ююз3687100 6.7 1007112